Regional Weather Roundup
Issued by NWS Cleveland, OH

Home | Current Version | Previous Version | Graphics & Text | Print | Product List | Glossary On
Versions: 1 2 3 4 5 6 7 8 9 10 11 12 13 14 15 16 17 18 19 20 21 22 23 24 25 26 27 28 29 30 31 32 33 34 35 36 37 38 39 40 41 42 43 44 45 46 47 48 49 50
000
ASUS41 KCLE 240400
RWRCLE
OHIO REGIONAL WEATHER ROUNDUP
NATIONAL WEATHER SERVICE WILMINGTON, OH
1100 PM EST THU FEB 23 2017

NOTE: "FAIR" INDICATES FEW OR NO CLOUDS BELOW 12,000 FEET WITH NO
SIGNIFICANT WEATHER AND/OR OBSTRUCTIONS TO VISIBILITY.

OHZ001>008-015>018-024>027-034-035-043-044-240500-
   NORTHWEST OHIO

CITY           SKY/WX    TMP DP  RH WIND       PRES   REMARKS
DEFIANCE       CLOUDY    52  48  86 NE8       29.74F
FINDLAY        MOCLDY    59  52  77 SE10      29.75S
TOLEDO EXPRESS LGT RAIN  45  43  93 E18G25    29.78S
TOLEDO EXEC    CLOUDY    45  43  93 NE9       29.82R
LIMA           CLOUDY    58  55  90 SE8       29.76S
$$

OHZ009>014-019>023-028>033-038-089-240500-
   NORTHEAST OHIO

CITY           SKY/WX    TMP DP  RH WIND       PRES   REMARKS
CLE-HOPKINS    LGT RAIN  52  47  83 E6        29.80F
CLE-LAKEFRONT  FAIR      44  41  89 NE3       29.78F
CUY CO. ARPT   CLOUDY    52  50  93 VRB7      29.79F
LORAIN-ELYRIA  MOCLDY    50  44  80 E5        29.79F
ASHTABULA      FAIR      50  49  96 SE6       29.81F
AKRON-CANTON   LGT RAIN  59  53  80 SE7       29.80F
WOOSTER        NOT AVBL
MANSFIELD      MOCLDY    57  55  93 SE6       29.78F
YOUNGSTOWN     CLOUDY    55  52  89 E6        29.82F
$$

OHZ042-051>053-060>062-070>072-077>081-240500-
  SOUTHWEST OHIO

CITY           SKY/WX    TMP DP  RH WIND       PRES   REMARKS
CINC-COVINGTON FAIR      62  56  80 SE12      29.74F
CINC-LUNKEN    FAIR      60  56  86 S3        29.75F
HAMILTON       MOCLDY    64  57  78 S6        29.76S
DAYTON         NOT AVBL
WRIGHT-PAT AFB MOCLDY    61  58  92 S5        29.76F
DAYTON GENERAL CLOUDY    61  55  81 SE6       29.75F
WILMINGTON     MOCLDY    60  55  83 S6        29.77F
$$

OHZ036-037-039>041-045>050-054>059-063>069-073>076-082>088-240500-
  CENTRAL AND SOUTHEAST OHIO

CITY           SKY/WX    TMP DP  RH WIND       PRES   REMARKS
COLUMBUS       CLOUDY    61  58  90 S3        29.78S
OSU AIRPORT    CLOUDY    60  56  86 S6        29.77F
BOLTON FIELD   NOT AVBL
RICKENBACK AFB NOT AVBL
NEWARK         MOCLDY    61  54  77 S6        29.78F
MARION         MOCLDY    57  54  89 S5        29.78S
LANCASTER      CLOUDY    63  55  75 S5        29.80S
ZANESVILLE     MOCLDY    58  54  86 S6        29.80F
NEW PHILLY     FAIR      57  57 100 SE5       29.81F FOG
$$




USA.gov is the U.S. government's official web portal to all federal, state and local government web resources and services.